Miscellaneous Local Product
Issued by NWS North Platte, NE

Home | Current Version | Previous Version | Text Only | Print | Product List | Glossary On
Versions: 1 2 3 4 5 6 7 8 9 10 11 12 13 14 15 16 17 18 19 20 21 22 23 24 25 26 27 28 29 30 31 32 33 34 35 36 37 38 39 40 41 42 43 44 45 46 47 48 49 50
000
AXUS43 KLBF 260510
MISLBF


WESTERN AND NORTH CENTRAL NEBRASKA HOURLY WEATHER ROUNDUP
NATIONAL WEATHER SERVICE NORTH PLATTE NE
1200 AM CDT WED JUL 26 2017

NOTE: "FAIR" INDICATES FEW OR NO CLOUDS BELOW 12,000 FEET WITH NO
SIGNIFICANT WEATHER AND/OR OBSTRUCTIONS TO VISIBILITY.

NOTE: STATIONS NOT REPORTING VARIABLES SUCH AS SKY/WEATHER OR
PRESSURE ARE PROVIDED BY RAWS AND APRS NETWORKS AND ARE NOT UNDER
NATIONAL WEATHER SERVICE QUALITY CONTROL.

...OBSERVATIONS IN AND NEAR THE EASTERN PANHANDLE OF NEBRASKA...

CITY           SKY/WX    TMP DP  RH WIND       PRES   REMARKS
PINE RIDGE     CLOUDY    76  65  68 NE17G25   30.06R
GORDON         LGT RAIN  72  65  80 N17G23    30.03S
CHADRON        CLOUDY    77  56  48 N16       30.06R
ALLIANCE       LGT RAIN  71  65  81 N13       30.04R
SIDNEY         CLOUDY    76  58  53 N14       30.04R
CRESCENT LAKE    N/A     73  63  71 N9          N/A
$$

...OBSERVATIONS IN NORTHERN NEBRASKA AND FAR SOUTHERN SOUTH DAKOTA...

CITY           SKY/WX    TMP DP  RH WIND       PRES   REMARKS
WINNER         FAIR      72  67  84 E7        29.98S
VALENTINE      CLOUDY    72  66  81 N16G23    29.95F
THEDFORD       CLOUDY    70  67  89 NW5G25    30.03R
AINSWORTH      TSTM      70  66  86 E17       29.94F
O`NEILL        HVY RAIN  68  68 100 N17G25    30.07R
ORD            CLOUDY    84  61  45 VRB7G22   29.91R
BROKEN BOW     CLOUDY    82  67  60 NE10G17   29.93R
VALENTINE NWR    N/A     70  66  86 NE14G22     N/A
HALSEY           N/A     70  65  83 NE6G16      N/A
BUTTE            N/A     69  67  94 E10         N/A
CHAMBERS         N/A     69  67  95 N3G12       N/A
EWING            N/A     71  68  90 NE6G14      N/A
$$

...OBSERVATIONS IN SOUTHWEST NEBRASKA AND FAR NORTHEAST COLORADO...

CITY           SKY/WX    TMP DP  RH WIND       PRES   REMARKS
HOLYOKE        FAIR      73  66  78 S12       29.99R
IMPERIAL       CLOUDY    73  64  73 S8        29.95F
OGALLALA       CLOUDY    78  61  56 CALM      29.91F
NORTH PLATTE   CLOUDY    80  70  71 S3        29.92S
MCCOOK         CLOUDY    86  66  51 W10       29.93R THUNDER
LEXINGTON      CLOUDY    82  68  64 SE8       29.91R
STAPLETON        N/A     70  65  84 CALM        N/A
GOTHENBURG       N/A     85  64  48 SE7         N/A
CALLAWAY         N/A     83  71  66 S16         N/A
$$

...OBSERVATIONS IN CENTRAL LINCOLN COUNTY AREA...

CITY           SKY/WX    TMP DP  RH WIND       PRES   REMARKS
N.P. AIRPORT   CLOUDY    80  70  71 S3        29.92S
N.P. DOWNTOWN    N/A     78  69  74 CALM        N/A
N.P. SOUTHEAST   N/A     79  70  74 CALM        N/A
N.P. HILLCREST   N/A     76  67  73 NE7         N/A
$$

...SOME OBSERVATIONS FROM AROUND THE REGION...

CITY           SKY/WX    TMP DP  RH WIND       PRES   REMARKS
DENVER         CLOUDY    69  58  67 W9        30.18F
LIMON          CLOUDY    66  61  84 NW12      30.16R
ASPEN          CLOUDY    56  55  97 CALM      30.36F
LARAMIE        CLOUDY    58  56  93 CALM      30.33S
CASPER         CLOUDY    62  57  83 E7        30.25S
CHEYENNE       CLOUDY    65  54  67 N20G26    30.24R
SCOTTSBLUFF    MOCLDY    78  56  46 N16G24    30.06R
GRAND ISLAND   CLOUDY    82  68  62 S14       29.95R
OMAHA          CLOUDY    84  72  67 SE15      29.97F
SIOUX FALLS    RAIN      73  73 100 N12       30.04
PIERRE         CLOUDY    75  64  68 NE13      29.97S
RAPID CITY     CLOUDY    72  54  53 N12       30.11F
BISMARCK       CLOUDY    71  54  54 E6        30.05R
KANSAS CITY    PTCLDY    82  76  81 SE8       30.04S
HILL CITY      PTCLDY    87  65  47 S16G25    29.91F
WICHITA        PTCLDY    84  70  62 SE13      29.98F
DODGE CITY     PTCLDY    86  63  45 S18       29.99R
OKLAHOMA CITY  PTCLDY    81  72  74 S10       30.03F
DALLAS         CLEAR     87  71  58 SE12      30.03R HX  93
AMARILLO       PTCLDY    83  60  45 S17       30.09S
$$




USA.gov is the U.S. government's official web portal to all federal, state and local government web resources and services.